TimePST,TemperatureF,Dew PointF,Humidity,Sea Level PressureIn,VisibilityMPH,Wind Direction,Wind SpeedMPH,Gust SpeedMPH,PrecipitationIn,Events,Conditions,WindDirDegrees,DateUTC
12:53 AM,50.0,45.0,83,29.76,10.0,ESE,5.8,-,0.00,,Overcast,120,2012-11-20 08:53:00
1:53 AM,48.0,45.0,89,29.75,10.0,SW,5.8,-,N/A,,Overcast,230,2012-11-20 09:53:00
2:53 AM,48.9,46.9,93,29.79,10.0,Calm,Calm,-,0.01,Rain,Light Rain,0,2012-11-20 10:53:00
3:53 AM,48.0,46.0,93,29.75,10.0,NE,4.6,-,0.02,Rain,Light Rain,40,2012-11-20 11:53:00
4:53 AM,48.0,46.0,93,29.74,10.0,Calm,Calm,-,0.02,Rain,Light Rain,0,2012-11-20 12:53:00
5:53 AM,48.0,46.0,93,29.75,6.0,Calm,Calm,-,0.11,Rain,Light Rain,0,2012-11-20 13:53:00
6:36 AM,46.4,46.4,100,29.74,3.0,Calm,Calm,-,0.05,Rain,Light Rain,0,2012-11-20 14:36:00
6:53 AM,46.9,46.0,97,29.73,5.0,Calm,Calm,-,0.06,Rain,Light Rain,0,2012-11-20 14:53:00
7:53 AM,46.9,45.0,93,29.71,3.0,Calm,Calm,-,0.03,,Overcast,0,2012-11-20 15:53:00
8:53 AM,48.0,45.0,89,29.69,10.0,East,4.6,-,N/A,,Mostly Cloudy,80,2012-11-20 16:53:00
9:53 AM,50.0,46.9,89,29.67,10.0,East,10.4,-,N/A,,Mostly Cloudy,90,2012-11-20 17:53:00
10:53 AM,55.0,46.0,72,29.67,10.0,ESE,10.4,-,N/A,,Overcast,120,2012-11-20 18:53:00
11:53 AM,55.0,46.0,72,29.67,10.0,North,8.1,-,N/A,,Mostly Cloudy,10,2012-11-20 19:53:00
12:53 PM,55.9,48.9,77,29.65,10.0,ESE,4.6,-,0.02,,Partly Cloudy,120,2012-11-20 20:53:00
1:53 PM,54.0,46.0,75,29.68,7.0,NW,8.1,-,0.00,Rain,Light Rain,310,2012-11-20 21:53:00
2:53 PM,57.9,41.0,53,29.68,10.0,Calm,Calm,-,0.02,,Mostly Cloudy,0,2012-11-20 22:53:00
3:53 PM,57.9,37.0,46,29.70,10.0,South,5.8,-,N/A,,Mostly Cloudy,190,2012-11-20 23:53:00
4:53 PM,52.0,42.1,69,29.74,10.0,NNW,18.4,24.2,N/A,,Overcast,330,2012-11-21 00:53:00
5:53 PM,48.9,39.9,71,29.76,10.0,NW,10.4,-,0.00,,Mostly Cloudy,310,2012-11-21 01:53:00
6:53 PM,46.9,39.0,74,29.75,10.0,SW,3.5,-,N/A,,Scattered Clouds,230,2012-11-21 02:53:00
7:53 PM,46.0,39.9,79,29.76,10.0,WNW,4.6,-,N/A,,Overcast,300,2012-11-21 03:53:00
8:53 PM,48.0,39.0,71,29.73,10.0,NW,11.5,-,0.00,,Overcast,310,2012-11-21 04:53:00
9:53 PM,46.9,41.0,80,29.75,7.0,Variable,3.5,-,0.03,Rain,Light Rain,0,2012-11-21 05:53:00
10:53 PM,45.0,42.1,90,29.74,10.0,SSW,4.6,-,0.02,Rain,Light Rain,210,2012-11-21 06:53:00
11:53 PM,43.0,41.0,93,29.69,10.0,Calm,Calm,-,0.00,,Clear,0,2012-11-21 07:53:00